Tracking 19199 objects as of 24-Jun-2018
HD Live streaming from Space Station
objects crossing your sky now

FENGYUN 1C DEB

Track FENGYUN 1C DEB now!
10-day predictions


NORAD ID: 31647
Int'l Code: 1999-025CBD
Perigee: 746.9 km
Apogee: 1,001.4 km
Inclination: 98.1 °
Period: 102.3 minutes
Semi major axis: 7245 km
RCS: 0.0149 m2 (small)
Launch date: May 10, 1999
Source: People's Republic of China (PRC)
Launch site: Taiyaun Space Center, China (TSC)

Note: This is SATELLITE DEBRIS
aabbcc
Your satellite tracking list
Your tracking list is empty




NASA's NSSDC Master Catalog

Two Line Element Set (TLE):
1 31647U 99025CBD 18173.92175136  .00001106  00000-0  58573-3 0  9999
2 31647  98.0659  76.1130 0175627 146.2205 215.0305 14.07758548568538
Source of the keplerian elements: AFSPC